Regional Weather Roundup
Issued by NWS

Home | Current Version | Previous Version | Graphics & Text | Print | Product List | Glossary On
Versions: 1 2 3 4 5 6 7 8 9 10 11 12 13 14 15 16 17 18 19 20 21 22 23 24 25 26 27 28 29 30 31 32 33 34 35 36 37 38 39 40 41 42 43 44 45 46 47 48 49 50
000
ASUS43 KMKX 280310
RWRWI

WISCONSIN REGIONAL WEATHER ROUNDUP
NATIONAL WEATHER SERVICE MILWAUKEE/SULLIVAN WI
900 PM CST FRI FEB 27 2015

NOTE: "FAIR" INDICATES FEW OR NO CLOUDS BELOW 12,000 FEET WITH NO
SIGNIFICANT WEATHER AND/OR OBSTRUCTIONS TO VISIBILITY.

WIZ001-002-006>008-014>016-023>028-280400-
NORTHWEST WISCONSIN

CITY           SKY/WX    TMP DP  RH WIND       PRES   REMARKS
SUPERIOR ARPT  CLEAR     10  -4  54 SW6       30.46R WCI   0
ASHLAND        CLEAR     11  -6  46 SW10      30.45S WCI  -3
HAYWARD        CLEAR     -2 -11  65 SW5       30.45R WCI -12
SIREN          CLEAR      8  -4  59 SW6       30.48S WCI  -3
CUMBERLAND     CLEAR      3  -6  66 SW8       30.47R WCI -10
RICE LAKE      CLEAR      6  -3  67 SW5       30.50S WCI  -3
CHETEK         CLEAR      5  -3  69 S5        30.50S WCI  -4
LADYSMITH      CLEAR      4  -4  69 SW5       30.49R WCI  -6
EAU CLAIRE     CLEAR      5  -4  66 SW7       30.53R WCI  -7
MENOMONIE      CLEAR      7  -2  66 S8        30.54R WCI  -6
NEW RICHMOND   CLEAR      5  -3  70 S7        30.51S WCI  -7
OSCEOLA        CLEAR      7  -2  66 S5        30.54R WCI  -2
$$

WIZ003>005-009-010-017-018-280400-
NORTH CENTRAL WISCONSIN

CITY           SKY/WX    TMP DP  RH WIND       PRES   REMARKS
MANITOWISH WTR CLEAR      3 -10  53 SW6       30.40R WCI  -8
ARBOR VITAE    CLEAR      6  -8  52 W5        30.41R WCI  -3
WOODRUFF       CLEAR      6  -8  52 W5        30.41R WCI  -3
RHINELANDER    CLEAR      3  -7  63 SW7       30.42R WCI  -9
EAGLE RIVER    CLEAR      2 -11  54 SW6       30.40R WCI  -9
LAND O LAKES   CLEAR      4  -8  57 SW5       30.39R WCI  -5
PHILLIPS       CLEAR      4  -8  58 SW5       30.43R WCI  -5
TOMAHAWK       CLEAR      4  -6  65 CALM      30.45R
MEDFORD        CLEAR      3  -5  68 SW5       30.46R WCI  -6
MERRILL        CLEAR      1  -6  70 CALM      30.47R
$$

WIZ029-030-035-036-043>047-280400-
CENTRAL WISCONSIN

CITY           SKY/WX    TMP DP  RH WIND       PRES   REMARKS
WAUSAU         CLEAR      4  -4  69 CALM      30.48R
MOSINEE        NOT AVBL
MARSHFIELD     CLEAR      4  -7  60 W6        30.50R WCI  -7
STEVENS POINT  CLEAR      6  -7  54 W5        30.52R WCI  -3
WAUPACA        CLEAR     10  -6  49 SW7       30.55R WCI  -1
WAUTOMA        CLEAR      2  -7  66 SW5       30.56R WCI  -7
WISC RAPIDS    CLEAR      7  -9  48 W6        30.54R WCI  -3
CAMP DOUGLAS   CLEAR      5  -6  59 SW7       30.55S WCI  -7
$$

WIZ011>013-019>022-031-037>040-048>050-280400-
NORTHEAST WISCONSIN

CITY           SKY/WX    TMP DP  RH WIND       PRES   REMARKS
ANTIGO         CLEAR      3  -6  65 W6        30.45R WCI  -8
SHAWANO        CLEAR     11  -5  47 SW3       30.53R
OCONTO         CLEAR      9  -6  52 SW6       30.53R WCI  -1
STURGEON BAY   CLEAR     10  -6  48 SW6       30.53R WCI   1
GREEN BAY      CLEAR     11  -2  56 SW6       30.54R WCI   1
MANITOWOC      CLEAR     10   0  63 W8        30.56R WCI  -2
APPLETON       CLEAR     10  -6  48 SW9       30.54R WCI  -2
CLINTONVILLE   CLEAR     10  -6  48 SW5       30.53R WCI   2
OSHKOSH        CLEAR     10  -4  53 SW5       30.55R WCI   2
$$

WIZ032>034-041-042-053>061-280400-
SOUTHWEST WISCONSIN

CITY           SKY/WX    TMP DP  RH WIND       PRES   REMARKS
LA CROSSE      CLEAR      4  -6  63 S5        30.60R WCI  -5
SPARTA         CLEAR     -2 -10  67 CALM      30.58R
VIROQUA        CLEAR      0  -7  73 SW6       30.53R WCI -12
BOSCOBEL       PTCLDY     1  -8  66 SW5       30.63R WCI  -9
PRAIRIE DU CHI PTCLDY    -1  -9  69 CALM      30.63R
PLATTEVILLE    PTCLDY     0  -7  72 S3        30.60R
$$

WIZ056-057-062-063-064-067-068-280400-
SOUTH CENTRAL WISCONSIN

CITY           SKY/WX    TMP DP  RH WIND       PRES   REMARKS
REEDSBURG      CLEAR      8  -5  56 W6        30.57R WCI  -2
BARABOO/DELLS  CLEAR      5  -6  60 SW7       30.56R WCI  -7
LONE ROCK      CLEAR      3  -7  63 SW3       30.62R
MINERAL POINT  CLEAR      3  -8  60 SW7       30.57R WCI  -9
MADISON        CLEAR      5  -6  60 SW5       30.59R WCI  -4
MIDDLETON      CLEAR      6  -6  57 SW5       30.59R WCI  -3
WATERTOWN      CLEAR      5  -5  64 SW3       30.59R
MONROE         PTCLDY     3  -4  72 SW7       30.58R WCI  -9
JANESVILLE     CLEAR      3  -6  66 SW5       30.62R WCI  -6
$$

WIZ051-052-058>065-066-070>072-280400-
SOUTHEAST WISCONSIN

CITY           SKY/WX    TMP DP  RH WIND       PRES   REMARKS
MILWAUKEE      FAIR       8  -6  52 SW8       30.62R WCI  -4
WAUKESHA       CLEAR      5  -6  61 SW7       30.61R WCI  -7
MILWAUKEE/TIMM CLEAR      9  -6  52 SW7       30.61S WCI  -3
RACINE         CLEAR      6  -7  54 SW7       30.64R WCI  -6
BURLINGTON     CLEAR     -1  -8  69 SW3       30.62R
KENOSHA        CLEAR      3  -7  63 SW8       30.62R WCI -10
FOND DU LAC    CLEAR      8  -3  61 SW9       30.56R WCI  -5
SHEBOYGAN      CLEAR      7  -4  60 SW9       30.57R WCI  -7
WEST BEND      CLEAR      9  -4  56 SW7       30.57S WCI  -3
JUNEAU         CLEAR      4  -5  66 S8        30.59R WCI  -9
$$

LSZ147-162-280400-
LAKE SUPERIOR

STATION/POSITION TIME  TEMP    WIND        PRES    WAVE
                       AIR SEA DIR/SP/G            HT/PER
                 (UTC) (F)     (DEG/KT/KT) (MB)    (FT/S)
DEVILS ISLAND    0300   14     220/ 13/ 16 1032.0R
PORT WING        0200   13     190/  8/ 11 1030.8R
SAXON HARBOR     0200   12     200/  4/  8 1031.2R
$$

LMZ867-665-643>646-280400-
LAKE MICHIGAN

STATION/POSITION TIME  TEMP    WIND        PRES    WAVE
                       AIR SEA DIR/SP/G            HT/PER
                 (UTC) (F)     (DEG/KT/KT) (MB)    (FT/S)
NORTHPORT PIER   0200   13     220/  4/  8 1032.2R
SISTER BAY       0243   13     250/ 12/ 15   N/A
KEWAUNEE LAKESHO 0200   13     220/  7/ 10 1032.8R
SHEBOYGAN LAKESH 0300   12     230/ 11/ 14 1037.5R
PORT WASHINGTON  0240   11     250/  6/  9 1036.6R
MILWAUKEE LAKESH 0200   12     240/ 10/ 13   N/A
KENOSHA   LAKESH 0300    8     240/  7/ 10 1037.3R
$$

TC  - TEMPERATURE IN CELSIUS
VSB - VISIBILITY IN STATUTE MILES
WCI - WIND CHILL INDEX
HX  - HEAT INDEX




USA.gov is the U.S. government's official web portal to all federal, state and local government web resources and services.